User: anonymous   Login
Location: Unspecified
(0.0000°N, 0.0000°E)
Time: 05:59:19
(UTC+02:00)
Language:

Cosmos 1980 Rocket - Orbit

View from above orbital plane
View from above orbital plane
View from above satellite
View from above satellite

Ground track
Ground track

The orbit data is extracted from the following two-line orbital elements,

1 19650U 88102B   17289.74656214 -.00000260  00000-0 -10815-3 0  9990
2 19650  70.9975 119.4911 0014707 348.5181  11.5605 14.15763747493194
Epoch (UTC): 16 October 2017 17:55:02
Eccentricity: 0.0014707
inclination: 70.9975°
perigee height: 829 km
apogee height: 850 km
right ascension of ascending node: 119.4911°
argument of perigee: 348.5181°
revolutions per day: 14.15763747
mean anomaly at epoch: 11.5605°
orbit number at epoch: 49319

The dashed part of the orbit path shows where the satellite is in the earth's shadow,  

DLR